TIANMU-1 10

Last updated on Wed Sep 17 2025 00:02:23 GMT+0000 (Coordinated Universal Time)

1 57402U 23101D 25259.63275802 .00007310 00000+0 28495-3 0 9992 2 57402 97.3047 311.5799 0008001 42.4731 317.7125 15.26214119119857
UTC large
Height (km)
Speed (km/s)
/
Latitude / Longitude
Inclination (degrees)
Orbital Period (minutes)
Azimuth
Elevation
Range (km)
Doppler Factor

Next 0 passes for location: London (51.5072 / 0.1276)

Sorry there are no passes over London.